• In Lithuania
  • List of Countries
  • For 7 days
  • Water Temperature
  • Satellite Maps
  • Weather Map
  • Weather Widgets
  • user-avatar
    Login

    Hourly Weather Fatehpur

    Today, 21 January, Sunday

    Time Temperature Precipitation Wind Pressure Humidity
    00:00 +13°C° 0 mm 2 mps 748 mmHg 60%
    01:00 +13°C° 0 mm 2 mps 748 mmHg 61%
    02:00 +12°C° 0 mm 1 mps 748 mmHg 63%
    03:00 +12°C° 0 mm 1 mps 748 mmHg 64%
    04:00 +11°C° 0 mm 1 mps 748 mmHg 64%
    05:00 +11°C° 0 mm 1 mps 748 mmHg 69%
    06:00 +12°C° 0 mm 1 mps 749 mmHg 66%
    07:00 +13°C° 0 mm 1 mps 749 mmHg 63%
    08:00 +14°C° 0 mm 1 mps 750 mmHg 60%
    09:00 +16°C° 0 mm 1 mps 750 mmHg 53%
    10:00 +19°C° 0 mm 1 mps 750 mmHg 45%
    11:00 +22°C° 0 mm 1 mps 750 mmHg 38%
    12:00 +22°C° 0 mm 1 mps 750 mmHg 35%
    13:00 +23°C° 0 mm 1 mps 749 mmHg 32%
    14:00 +24°C° 0 mm 2 mps 749 mmHg 29%
    15:00 +21°C° 0 mm 2 mps 748 mmHg 33%
    16:00 +21°C° 0 mm 1 mps 748 mmHg 36%
    17:00 +19°C° 0 mm 1 mps 748 mmHg 40%
    18:00 +18°C° 0 mm 1 mps 748 mmHg 41%
    19:00 +16°C° 0 mm 1 mps 748 mmHg 42%
    20:00 +15°C° 0 mm 1 mps 749 mmHg 43%
    21:00 +15°C° 0 mm 1 mps 748 mmHg 45%
    22:00 +14°C° 0 mm 1 mps 748 mmHg 46%
    23:00 +13°C° 0 mm 1 mps 748 mmHg 47%

    Tomorrow, 22 January, Monday

    Time Temperature Precipitation Wind Pressure Humidity
    00:00 +13°C° 0 mm 1 mps 748 mmHg 48%
    01:00 +13°C° 0 mm 1 mps 748 mmHg 49%
    02:00 +12°C° 0 mm 1 mps 748 mmHg 51%
    03:00 +12°C° 0 mm 1 mps 748 mmHg 52%
    04:00 +11°C° 0 mm 1 mps 748 mmHg 53%
    05:00 +11°C° 0 mm 1 mps 747 mmHg 54%
    06:00 +12°C° 0 mm 1 mps 748 mmHg 53%
    07:00 +13°C° 0 mm 1 mps 749 mmHg 52%
    08:00 +13°C° 0 mm 0 mps 749 mmHg 50%
    09:00 +15°C° 0 mm 0 mps 749 mmHg 45%
    10:00 +18°C° 0 mm 0 mps 750 mmHg 40%
    11:00 +20°C° 0 mm 0 mps 750 mmHg 35%
    12:00 +23°C° 0 mm 1 mps 749 mmHg 33%
    13:00 +24°C° 0 mm 1 mps 748 mmHg 30%
    14:00 +24°C° 0 mm 1 mps 747 mmHg 28%
    15:00 +23°C° 0 mm 1 mps 747 mmHg 32%
    16:00 +21°C° 0 mm 1 mps 747 mmHg 36%
    17:00 +20°C° 0 mm 1 mps 747 mmHg 40%
    18:00 +19°C° 0 mm 1 mps 747 mmHg 40%
    19:00 +18°C° 0 mm 1 mps 747 mmHg 41%
    20:00 +16°C° 0 mm 1 mps 748 mmHg 42%
    21:00 +15°C° 0 mm 1 mps 748 mmHg 43%
    22:00 +15°C° 0 mm 1 mps 748 mmHg 44%
    23:00 +14°C° 0 mm 1 mps 748 mmHg 44%

    Day after tomorrow, 23 January, Tuesday

    Time Temperature Precipitation Wind Pressure Humidity
    00:00 +14°C° 0 mm 1 mps 747 mmHg 45%
    01:00 +13°C° 0 mm 1 mps 747 mmHg 46%
    02:00 +13°C° 0 mm 1 mps 747 mmHg 47%
    03:00 +13°C° 0 mm 1 mps 747 mmHg 48%
    04:00 +12°C° 0 mm 1 mps 747 mmHg 50%
    05:00 +12°C° 0 mm 1 mps 746 mmHg 51%
    06:00 +13°C° 0 mm 1 mps 747 mmHg 50%
    07:00 +14°C° 0 mm 1 mps 748 mmHg 50%
    08:00 +15°C° 0 mm 1 mps 748 mmHg 49%
    09:00 +18°C° 0 mm 1 mps 748 mmHg 44%
    10:00 +21°C° 0 mm 1 mps 748 mmHg 40%
    11:00 +23°C° 0 mm 2 mps 748 mmHg 35%
    12:00 +24°C° 0 mm 2 mps 747 mmHg 33%
    13:00 +25°C° 0 mm 1 mps 746 mmHg 31%
    14:00 +26°C° 0 mm 1 mps 745 mmHg 28%
    15:00 +24°C° 0 mm 1 mps 745 mmHg 33%
    16:00 +23°C° 0 mm 1 mps 744 mmHg 37%
    17:00 +20°C° 0 mm 2 mps 744 mmHg 41%
    18:00 +19°C° 0 mm 2 mps 745 mmHg 43%
    19:00 +18°C° 0 mm 2 mps 745 mmHg 45%
    20:00 +17°C° 0 mm 2 mps 745 mmHg 46%
    21:00 +17°C° 0.1 mm 2 mps 746 mmHg 50%
    22:00 +17°C° 0.1 mm 3 mps 746 mmHg 54%
    23:00 +17°C° 0.1 mm 3 mps 746 mmHg 58%

    24 January, Wednesday

    Time Temperature Precipitation Wind Pressure Humidity
    00:00 +16°C° 0.4 mm 3 mps 746 mmHg 65%
    01:00 +14°C° 0.4 mm 3 mps 746 mmHg 72%
    02:00 +13°C° 0.4 mm 3 mps 746 mmHg 79%
    03:00 +13°C° 0.6 mm 3 mps 746 mmHg 83%
    04:00 +13°C° 0.6 mm 3 mps 746 mmHg 86%
    05:00 +13°C° 0.6 mm 4 mps 745 mmHg 89%
    06:00 +13°C° 0.1 mm 3 mps 746 mmHg 87%
    07:00 +14°C° 0.1 mm 3 mps 747 mmHg 84%
    08:00 +16°C° 0.1 mm 2 mps 748 mmHg 81%
    09:00 +18°C° 0 mm 2 mps 748 mmHg 72%
    10:00 +21°C° 0 mm 1 mps 749 mmHg 63%
    11:00 +23°C° 0 mm 1 mps 749 mmHg 54%
    12:00 +23°C° 0 mm 1 mps 748 mmHg 51%
    13:00 +24°C° 0 mm 2 mps 748 mmHg 48%
    14:00 +24°C° 0 mm 2 mps 747 mmHg 45%
    15:00 +23°C° 0 mm 2 mps 747 mmHg 51%
    16:00 +21°C° 0 mm 2 mps 747 mmHg 56%
    17:00 +20°C° 0 mm 2 mps 746 mmHg 61%
    18:00 +19°C° 0 mm 2 mps 747 mmHg 65%
    19:00 +18°C° 0 mm 2 mps 747 mmHg 68%
    20:00 +17°C° 0 mm 2 mps 748 mmHg 72%
    21:00 +16°C° 0 mm 2 mps 747 mmHg 74%
    22:00 +16°C° 0 mm 2 mps 747 mmHg 77%
    23:00 +15°C° 0 mm 2 mps 747 mmHg 79%

    25 January, Thursday

    Time Temperature Precipitation Wind Pressure Humidity
    00:00 +15°C° 0 mm 2 mps 747 mmHg 81%
    01:00 +14°C° 0 mm 2 mps 746 mmHg 83%
    02:00 +14°C° 0 mm 2 mps 746 mmHg 85%
    03:00 +14°C° 0 mm 2 mps 746 mmHg 85%
    04:00 +13°C° 0 mm 2 mps 746 mmHg 86%
    05:00 +13°C° 0 mm 2 mps 746 mmHg 87%
    06:00 +14°C° 0 mm 2 mps 746 mmHg 83%
    07:00 +14°C° 0 mm 3 mps 747 mmHg 79%
    08:00 +14°C° 0 mm 3 mps 748 mmHg 74%
    09:00 +18°C° 0 mm 3 mps 748 mmHg 67%
    10:00 +20°C° 0 mm 3 mps 748 mmHg 59%
    11:00 +22°C° 0 mm 3 mps 748 mmHg 51%
    12:00 +22°C° 0 mm 3 mps 748 mmHg 48%
    13:00 +23°C° 0 mm 4 mps 747 mmHg 46%
    14:00 +25°C° 0 mm 4 mps 746 mmHg 44%
    15:00 +22°C° 0 mm 3 mps 746 mmHg 49%
    16:00 +21°C° 0 mm 3 mps 746 mmHg 54%
    17:00 +19°C° 0 mm 2 mps 746 mmHg 59%
    18:00 +18°C° 0 mm 2 mps 746 mmHg 61%
    19:00 +17°C° 0 mm 2 mps 747 mmHg 63%
    20:00 +16°C° 0 mm 2 mps 747 mmHg 65%
    21:00 +16°C° 0 mm 2 mps 747 mmHg 66%
    22:00 +16°C° 0 mm 2 mps 747 mmHg 67%
    23:00 +15°C° 0 mm 2 mps 747 mmHg 69%

    26 January, Friday

    Time Temperature Precipitation Wind Pressure Humidity
    00:00 +15°C° 0 mm 2 mps 747 mmHg 69%
    01:00 +14°C° 0 mm 2 mps 747 mmHg 70%
    02:00 +14°C° 0 mm 2 mps 746 mmHg 71%
    03:00 +13°C° 0 mm 2 mps 746 mmHg 71%
    04:00 +13°C° 0 mm 2 mps 746 mmHg 71%
    05:00 +13°C° 0 mm 2 mps 746 mmHg 71%
    06:00 +13°C° 0 mm 2 mps 747 mmHg 68%
    07:00 +14°C° 0 mm 2 mps 747 mmHg 66%
    08:00 +15°C° 0 mm 2 mps 748 mmHg 63%
    09:00 +17°C° 0 mm 3 mps 748 mmHg 56%
    10:00 +19°C° 0 mm 3 mps 748 mmHg 48%
    11:00 +21°C° 0 mm 3 mps 748 mmHg 40%
    12:00 +22°C° 0 mm 3 mps 748 mmHg 38%
    13:00 +22°C° 0 mm 4 mps 747 mmHg 36%
    14:00 +23°C° 0 mm 4 mps 747 mmHg 34%
    15:00 +22°C° 0 mm 4 mps 746 mmHg 40%
    16:00 +20°C° 0 mm 3 mps 746 mmHg 45%
    17:00 +19°C° 0 mm 3 mps 746 mmHg 50%
    18:00 +18°C° 0 mm 3 mps 746 mmHg 51%
    19:00 +17°C° 0 mm 2 mps 746 mmHg 52%
    20:00 +16°C° 0 mm 2 mps 747 mmHg 53%
    21:00 +15°C° 0 mm 2 mps 747 mmHg 54%
    22:00 +15°C° 0 mm 2 mps 747 mmHg 55%
    23:00 +14°C° 0 mm 2 mps 747 mmHg 56%
    Show more